,,,PA_Meas_PMT16A,,PR_Meas_QMR101_102,,RH_Meas_QMH101,,SR_Meas_QMS101,,TA_Meas_QMH101,,GenWind,,GenWind,
date,time,status,PA,status,PR,status,RH,status,SR,status,TA,status,DirAvg,status,SpdAvg,
2010-09-14, 00:00:04,VALID,1009.48,VALID,0,VALID,103.26,VALID,0,VALID,23.0316,VALID,63,VALID,0.0523437,
2010-09-14, 00:01:04,VALID,1009.45,VALID,0,VALID,103.222,VALID,0,VALID,23.0511,VALID,69,VALID,0.551953,
2010-09-14, 00:02:04,VALID,1009.46,VALID,0,VALID,103.199,VALID,0,VALID,23.0511,VALID,64,VALID,0.508203,
2010-09-14, 00:03:04,VALID,1009.45,VALID,0,VALID,103.161,VALID,0,VALID,23.0705,VALID,62,VALID,0.707812,
2010-09-14, 00:04:04,VALID,1009.42,VALID,0,VALID,103.1,VALID,0,VALID,23.09,VALID,54,VALID,0.345313,
2010-09-14, 00:05:04,VALID,1009.41,VALID,0,VALID,103.039,VALID,0,VALID,23.0705,VALID,64,VALID,0.322656,
2010-09-14, 00:06:04,VALID,1009.42,VALID,0,VALID,102.978,VALID,0,VALID,23.0493,VALID,67,VALID,0.607031,
2010-09-14, 00:07:04,VALID,1009.42,VALID,0,VALID,102.932,VALID,0,VALID,23.09,VALID,60,VALID,0.521094,
2010-09-14, 00:08:04,VALID,1009.4,VALID,0,VALID,102.91,VALID,0,VALID,23.1095,VALID,61,VALID,0.507031,
2010-09-14, 00:09:04,VALID,1009.41,VALID,0,VALID,102.864,VALID,0,VALID,23.1077,VALID,62,VALID,0.0558594,
2010-09-14, 00:10:04,VALID,1009.4,VALID,0,VALID,102.788,VALID,0,VALID,23.1077,VALID,49,VALID,0.486328,
2010-09-14, 00:11:04,VALID,1009.4,VALID,0,VALID,102.765,VALID,0,VALID,23.1485,VALID,40,VALID,0.50625,
2010-09-14, 00:12:04,VALID,1009.39,VALID,0,VALID,102.719,VALID,0,VALID,23.1485,VALID,39,VALID,0,
2010-09-14, 00:13:04,VALID,1009.43,VALID,0,VALID,102.643,VALID,0,VALID,23.129,VALID,39,VALID,0,
2010-09-14, 00:14:04,VALID,1009.44,VALID,0,VALID,102.566,VALID,0,VALID,23.129,VALID,39,VALID,0.251172,
2010-09-14, 00:15:04,VALID,1009.46,VALID,0,VALID,102.582,VALID,0,VALID,23.129,VALID,39,VALID,0.194141,
2010-09-14, 00:16:04,VALID,1009.44,VALID,0,VALID,102.551,VALID,0,VALID,23.0883,VALID,40,VALID,0.297266,
2010-09-14, 00:17:04,VALID,1009.43,VALID,0,VALID,102.582,VALID,0,VALID,23.129,VALID,52,VALID,0.791016,
2010-09-14, 00:18:04,VALID,1009.4,VALID,0,VALID,102.605,VALID,0,VALID,23.1077,VALID,47,VALID,0.498047,
2010-09-14, 00:19:04,VALID,1009.38,VALID,0,VALID,102.566,VALID,0,VALID,23.129,VALID,47,VALID,0.206641,
2010-09-14, 00:20:04,VALID,1009.34,VALID,0,VALID,102.513,VALID,0,VALID,23.1077,VALID,47,VALID,0.0722656,
2010-09-14, 00:21:04,VALID,1009.36,VALID,0,VALID,102.49,VALID,0.105969,VALID,23.0688,VALID,47,VALID,0.00625,
2010-09-14, 00:22:04,VALID,1009.33,VALID,0,VALID,102.544,VALID,0,VALID,23.0688,VALID,39,VALID,0.0691406,
2010-09-14, 00:23:04,VALID,1009.36,VALID,0,VALID,102.589,VALID,0.105969,VALID,23.0493,VALID,39,VALID,0.204297,
2010-09-14, 00:24:04,VALID,1009.38,VALID,0,VALID,102.673,VALID,0.105969,VALID,23.0705,VALID,37,VALID,0.265234,
2010-09-14, 00:25:04,VALID,1009.37,VALID,0,VALID,102.688,VALID,0.105969,VALID,23.0705,VALID,37,VALID,0,
2010-09-14, 00:26:04,VALID,1009.39,VALID,0,VALID,102.688,VALID,0,VALID,23.0103,VALID,37,VALID,0.071875,
2010-09-14, 00:27:04,VALID,1009.39,VALID,0,VALID,102.704,VALID,0.105969,VALID,23.0103,VALID,37,VALID,0,
2010-09-14, 00:28:04,VALID,1009.4,VALID,0,VALID,102.742,VALID,0.105969,VALID,22.9909,VALID,37,VALID,0,
2010-09-14, 00:29:04,VALID,1009.4,VALID,0,VALID,102.788,VALID,0.105969,VALID,22.9714,VALID,37,VALID,0,
2010-09-14, 00:30:04,VALID,1009.38,VALID,0,VALID,102.833,VALID,0.105969,VALID,22.9714,VALID,37,VALID,0,
2010-09-14, 00:31:04,VALID,1009.37,VALID,0,VALID,102.849,VALID,0,VALID,22.9714,VALID,56,VALID,0.0121094,
2010-09-14, 00:32:04,VALID,1009.36,VALID,0,VALID,102.887,VALID,0.105969,VALID,22.9714,VALID,56,VALID,0,
2010-09-14, 00:33:04,VALID,1009.34,VALID,0,VALID,102.925,VALID,0.105969,VALID,22.9519,VALID,56,VALID,0,
2010-09-14, 00:34:04,VALID,1009.36,VALID,0,VALID,102.955,VALID,0.105969,VALID,22.9519,VALID,56,VALID,0,
2010-09-14, 00:35:04,VALID,1009.33,VALID,0,VALID,102.993,VALID,0,VALID,22.9519,VALID,56,VALID,0.040625,
2010-09-14, 00:36:04,VALID,1009.31,VALID,0,VALID,103.016,VALID,0,VALID,22.9519,VALID,56,VALID,0,
2010-09-14, 00:37:04,VALID,1009.3,VALID,0,VALID,102.993,VALID,0.105969,VALID,22.9714,VALID,56,VALID,0,
2010-09-14, 00:38:04,VALID,1009.26,VALID,0,VALID,102.986,VALID,0,VALID,22.9731,VALID,56,VALID,0,
2010-09-14, 00:39:04,VALID,1009.27,VALID,0,VALID,102.94,VALID,0.105969,VALID,22.9536,VALID,56,VALID,0.410937,
2010-09-14, 00:40:04,VALID,1009.28,VALID,0,VALID,102.948,VALID,0.105969,VALID,22.9324,VALID,56,VALID,0.529297,
2010-09-14, 00:41:04,VALID,1009.25,VALID,0,VALID,102.955,VALID,0.105969,VALID,22.9129,VALID,56,VALID,0.409766,
2010-09-14, 00:42:04,VALID,1009.26,VALID,0,VALID,102.971,VALID,0.105969,VALID,22.9324,VALID,56,VALID,0.325391,
2010-09-14, 00:43:04,VALID,1009.27,VALID,0,VALID,102.993,VALID,0,VALID,22.9129,VALID,56,VALID,0.298438,
2010-09-14, 00:44:04,VALID,1009.26,VALID,0,VALID,103.032,VALID,0,VALID,22.9129,VALID,56,VALID,0,
2010-09-14, 00:45:04,VALID,1009.25,VALID,0,VALID,103.047,VALID,0,VALID,22.9129,VALID,56,VALID,0.198437,
2010-09-14, 00:46:04,VALID,1009.22,VALID,0,VALID,103.085,VALID,0,VALID,22.9342,VALID,53,VALID,0,
2010-09-14, 00:47:04,VALID,1009.19,VALID,0,VALID,103.054,VALID,0,VALID,22.9147,VALID,53,VALID,0,
2010-09-14, 00:48:04,VALID,1009.15,VALID,0,VALID,103.047,VALID,0,VALID,22.9147,VALID,53,VALID,0.0707031,
2010-09-14, 00:49:04,VALID,1009.12,VALID,0,VALID,103.039,VALID,0,VALID,22.8935,VALID,53,VALID,0,
2010-09-14, 00:50:04,VALID,1009.1,VALID,0,VALID,103.039,VALID,0,VALID,22.8757,VALID,53,VALID,0,
2010-09-14, 00:51:04,VALID,1009.05,VALID,0,VALID,103.062,VALID,0,VALID,22.8757,VALID,53,VALID,0,
2010-09-14, 00:52:04,VALID,1009.05,VALID,0,VALID,103.093,VALID,0.105969,VALID,22.835,VALID,53,VALID,0,
2010-09-14, 00:53:04,VALID,1009.03,VALID,0,VALID,103.131,VALID,0.105969,VALID,22.8562,VALID,53,VALID,0,
2010-09-14, 00:54:04,VALID,1009,VALID,0,VALID,103.169,VALID,0,VALID,22.8562,VALID,53,VALID,0,
2010-09-14, 00:55:04,VALID,1008.95,VALID,0,VALID,103.192,VALID,0.105969,VALID,22.8562,VALID,53,VALID,0.178906,
2010-09-14, 00:56:04,VALID,1008.95,VALID,0,VALID,103.184,VALID,0.105969,VALID,22.8562,VALID,53,VALID,0.117188,
2010-09-14, 00:57:04,VALID,1008.95,VALID,0,VALID,103.192,VALID,0,VALID,22.8155,VALID,53,VALID,0.00703125,
2010-09-14, 00:58:04,VALID,1008.94,VALID,0,VALID,103.222,VALID,0,VALID,22.8368,VALID,53,VALID,0.0546875,
2010-09-14, 00:59:04,VALID,1008.94,VALID,0,VALID,103.215,VALID,0,VALID,22.835,VALID,53,VALID,0.135547,
2010-09-14, 01:00:04,VALID,1008.97,VALID,0,VALID,103.253,VALID,0.105969,VALID,22.8545,VALID,53,VALID,0.291797,
2010-09-14, 01:01:04,VALID,1008.96,VALID,0,VALID,103.237,VALID,0,VALID,22.835,VALID,53,VALID,0,
2010-09-14, 01:02:04,VALID,1008.96,VALID,0,VALID,103.253,VALID,0.105969,VALID,22.8757,VALID,53,VALID,0,
2010-09-14, 01:03:04,VALID,1008.95,VALID,0,VALID,103.268,VALID,0.105969,VALID,22.874,VALID,53,VALID,0,
2010-09-14, 01:04:04,VALID,1008.94,VALID,0,VALID,103.26,VALID,0.105969,VALID,22.8935,VALID,53,VALID,0.0648438,
2010-09-14, 01:05:04,VALID,1008.92,VALID,0,VALID,103.237,VALID,0,VALID,22.9129,VALID,53,VALID,0,
2010-09-14, 01:06:04,VALID,1008.88,VALID,0,VALID,103.23,VALID,0,VALID,22.9129,VALID,53,VALID,0,
2010-09-14, 01:07:04,VALID,1008.91,VALID,0,VALID,103.23,VALID,0.105969,VALID,22.9342,VALID,53,VALID,0.0449219,
2010-09-14, 01:08:04,VALID,1008.9,VALID,0,VALID,103.176,VALID,0,VALID,22.9129,VALID,53,VALID,0.303906,
2010-09-14, 01:09:04,VALID,1008.89,VALID,0,VALID,103.161,VALID,0.105969,VALID,22.9324,VALID,53,VALID,0,
2010-09-14, 01:10:04,VALID,1008.84,VALID,0,VALID,103.138,VALID,0,VALID,22.9536,VALID,53,VALID,0,
2010-09-14, 01:11:04,VALID,1008.85,VALID,0,VALID,103.115,VALID,0.105969,VALID,22.9519,VALID,53,VALID,0,
2010-09-14, 01:12:04,VALID,1008.82,VALID,0,VALID,103.131,VALID,0,VALID,22.9926,VALID,68,VALID,0.4125,
2010-09-14, 01:13:04,VALID,1008.82,VALID,0,VALID,103.1,VALID,0,VALID,22.9909,VALID,68,VALID,0,
2010-09-14, 01:14:04,VALID,1008.81,VALID,0,VALID,103.085,VALID,0.105969,VALID,23.0103,VALID,68,VALID,0,
2010-09-14, 01:15:04,VALID,1008.8,VALID,0,VALID,103.039,VALID,0,VALID,23.0103,VALID,68,VALID,0.1125,
2010-09-14, 01:16:04,VALID,1008.81,VALID,0,VALID,102.963,VALID,0,VALID,23.0298,VALID,68,VALID,0,
2010-09-14, 01:17:04,VALID,1008.82,VALID,0,VALID,102.894,VALID,0.105969,VALID,23.0511,VALID,68,VALID,0.229687,
2010-09-14, 01:18:04,VALID,1008.81,VALID,0,VALID,102.841,VALID,0.105969,VALID,23.0493,VALID,68,VALID,0,
2010-09-14, 01:19:04,VALID,1008.79,VALID,0,VALID,102.795,VALID,0.105969,VALID,23.0688,VALID,68,VALID,0,
2010-09-14, 01:20:04,VALID,1008.8,VALID,0,VALID,102.742,VALID,0.105969,VALID,23.0883,VALID,68,VALID,0,
2010-09-14, 01:21:04,VALID,1008.78,VALID,0,VALID,102.635,VALID,0,VALID,23.09,VALID,68,VALID,0,
2010-09-14, 01:22:04,VALID,1008.72,VALID,0,VALID,102.574,VALID,0,VALID,23.129,VALID,131,VALID,0.318359,
2010-09-14, 01:23:04,VALID,1008.69,VALID,0,VALID,102.544,VALID,0,VALID,23.1272,VALID,131,VALID,0.438281,
2010-09-14, 01:24:04,VALID,1008.68,VALID,0,VALID,102.467,VALID,0.105969,VALID,23.1272,VALID,131,VALID,0.420312,
2010-09-14, 01:25:04,VALID,1008.65,VALID,0,VALID,102.292,VALID,0,VALID,23.0688,VALID,135,VALID,0.565234,
2010-09-14, 01:26:04,VALID,1008.67,VALID,0,VALID,102.177,VALID,0,VALID,23.0493,VALID,135,VALID,0.366016,
2010-09-14, 01:27:04,VALID,1008.66,VALID,0,VALID,102.238,VALID,0,VALID,23.0511,VALID,159,VALID,0.615234,
2010-09-14, 01:28:04,VALID,1008.68,VALID,0,VALID,102.338,VALID,0,VALID,23.0493,VALID,176,VALID,0.707812,
2010-09-14, 01:29:04,VALID,1008.69,VALID,0,VALID,102.444,VALID,0,VALID,23.0511,VALID,176,VALID,0.276172,
2010-09-14, 01:30:04,VALID,1008.68,VALID,0,VALID,102.467,VALID,0,VALID,23.0705,VALID,176,VALID,0.336719,
2010-09-14, 01:31:04,VALID,1008.67,VALID,0,VALID,102.528,VALID,0,VALID,23.0705,VALID,176,VALID,0.120312,
2010-09-14, 01:32:04,VALID,1008.65,VALID,0,VALID,102.551,VALID,0,VALID,23.0493,VALID,176,VALID,0,
2010-09-14, 01:33:04,VALID,1008.63,VALID,0,VALID,102.589,VALID,0,VALID,23.0883,VALID,176,VALID,0,
2010-09-14, 01:34:04,VALID,1008.62,VALID,0,VALID,102.597,VALID,0,VALID,23.1095,VALID,176,VALID,0,
2010-09-14, 01:35:04,VALID,1008.6,VALID,0,VALID,102.566,VALID,0,VALID,23.09,VALID,176,VALID,0.266016,
2010-09-14, 01:36:04,VALID,1008.63,VALID,0,VALID,102.513,VALID,0,VALID,23.09,VALID,176,VALID,0.283203,
2010-09-14, 01:37:04,VALID,1008.62,VALID,0,VALID,102.551,VALID,0,VALID,23.1077,VALID,176,VALID,0.225781,
2010-09-14, 01:38:04,VALID,1008.62,VALID,0,VALID,102.566,VALID,0,VALID,23.1095,VALID,176,VALID,0.292969,
2010-09-14, 01:39:04,VALID,1008.63,VALID,0,VALID,102.536,VALID,0,VALID,23.1077,VALID,176,VALID,0.167578,
2010-09-14, 01:40:04,VALID,1008.62,VALID,0,VALID,102.544,VALID,0.105969,VALID,23.129,VALID,176,VALID,0,
2010-09-14, 01:41:04,VALID,1008.64,VALID,0,VALID,102.528,VALID,0,VALID,23.1485,VALID,176,VALID,0,
2010-09-14, 01:42:04,VALID,1008.61,VALID,0,VALID,102.513,VALID,0,VALID,23.1272,VALID,176,VALID,0,
2010-09-14, 01:43:04,VALID,1008.58,VALID,0,VALID,102.505,VALID,0,VALID,23.1467,VALID,176,VALID,0,
2010-09-14, 01:44:04,VALID,1008.59,VALID,0,VALID,102.452,VALID,0,VALID,23.1679,VALID,176,VALID,0,
2010-09-14, 01:45:04,VALID,1008.58,VALID,0,VALID,102.391,VALID,0.105969,VALID,23.1485,VALID,176,VALID,0,
2010-09-14, 01:46:04,VALID,1008.59,VALID,0,VALID,102.383,VALID,0,VALID,23.1679,VALID,176,VALID,0,
2010-09-14, 01:47:04,VALID,1008.6,VALID,0,VALID,102.338,VALID,0,VALID,23.1679,VALID,176,VALID,0,
2010-09-14, 01:48:04,VALID,1008.59,VALID,0,VALID,102.345,VALID,0,VALID,23.1662,VALID,176,VALID,0,
2010-09-14, 01:49:04,VALID,1008.62,VALID,0,VALID,102.376,VALID,0,VALID,23.1857,VALID,176,VALID,0,
2010-09-14, 01:50:04,VALID,1008.6,VALID,0,VALID,102.36,VALID,0,VALID,23.1874,VALID,111,VALID,0,
2010-09-14, 01:51:04,VALID,1008.63,VALID,0,VALID,102.36,VALID,0.105969,VALID,23.1679,VALID,111,VALID,0,
2010-09-14, 01:52:04,VALID,1008.63,VALID,0,VALID,102.345,VALID,0,VALID,23.1272,VALID,110,VALID,0,
2010-09-14, 01:53:04,VALID,1008.59,VALID,0,VALID,102.383,VALID,0.105969,VALID,23.1485,VALID,46,VALID,0.696484,
2010-09-14, 01:54:04,VALID,1008.57,VALID,0,VALID,102.429,VALID,0,VALID,23.129,VALID,46,VALID,0.629687,
2010-09-14, 01:55:04,VALID,1008.59,VALID,0,VALID,102.429,VALID,0.105969,VALID,23.0883,VALID,58,VALID,0.667188,
2010-09-14, 01:56:04,VALID,1008.58,VALID,0,VALID,102.467,VALID,0,VALID,23.0688,VALID,58,VALID,0.603516,
2010-09-14, 01:57:04,VALID,1008.59,VALID,0,VALID,102.475,VALID,0,VALID,23.0688,VALID,46,VALID,0.440625,
2010-09-14, 01:58:04,VALID,1008.61,VALID,0,VALID,102.482,VALID,0,VALID,23.0511,VALID,46,VALID,0.0398437,
2010-09-14, 01:59:04,VALID,1008.6,VALID,0,VALID,102.551,VALID,0,VALID,23.0511,VALID,46,VALID,0,
2010-09-14, 02:00:04,VALID,1008.61,VALID,0,VALID,102.551,VALID,0,VALID,23.0511,VALID,46,VALID,0,
2010-09-14, 02:01:04,VALID,1008.59,VALID,0,VALID,102.521,VALID,0,VALID,23.0316,VALID,46,VALID,0,
2010-09-14, 02:02:04,VALID,1008.57,VALID,0,VALID,102.482,VALID,0.105969,VALID,23.0121,VALID,46,VALID,0.215234,
2010-09-14, 02:03:04,VALID,1008.58,VALID,0,VALID,102.528,VALID,0,VALID,23.0316,VALID,35,VALID,0.174219,
2010-09-14, 02:04:04,VALID,1008.59,VALID,0,VALID,102.582,VALID,0,VALID,22.9909,VALID,35,VALID,0,
2010-09-14, 02:05:04,VALID,1008.59,VALID,0,VALID,102.605,VALID,0.105969,VALID,23.0121,VALID,35,VALID,0,
2010-09-14, 02:06:04,VALID,1008.6,VALID,0,VALID,102.582,VALID,0,VALID,22.9731,VALID,26,VALID,0.56875,
2010-09-14, 02:07:04,VALID,1008.58,VALID,0,VALID,102.612,VALID,0,VALID,22.9731,VALID,3,VALID,0.119922,
2010-09-14, 02:08:04,VALID,1008.59,VALID,0,VALID,102.65,VALID,0.105969,VALID,22.9519,VALID,3,VALID,0.134766,
2010-09-14, 02:09:04,VALID,1008.59,VALID,0,VALID,102.727,VALID,0,VALID,22.9731,VALID,3,VALID,0,
2010-09-14, 02:10:04,VALID,1008.57,VALID,0,VALID,102.711,VALID,0,VALID,22.9536,VALID,3,VALID,0,
2010-09-14, 02:11:04,VALID,1008.59,VALID,0,VALID,102.742,VALID,0,VALID,22.9342,VALID,3,VALID,0,
2010-09-14, 02:12:04,VALID,1008.58,VALID,0,VALID,102.772,VALID,0,VALID,22.9342,VALID,3,VALID,0,
2010-09-14, 02:13:04,VALID,1008.59,VALID,0,VALID,102.81,VALID,0,VALID,22.9536,VALID,3,VALID,0,
2010-09-14, 02:14:04,VALID,1008.57,VALID,0,VALID,102.841,VALID,0.105969,VALID,22.9536,VALID,3,VALID,0,
2010-09-14, 02:15:04,VALID,1008.57,VALID,0,VALID,102.841,VALID,0,VALID,22.9536,VALID,3,VALID,0,
2010-09-14, 02:16:04,VALID,1008.58,VALID,0,VALID,102.826,VALID,0.105969,VALID,22.9324,VALID,3,VALID,0,
2010-09-14, 02:17:04,VALID,1008.58,VALID,0,VALID,102.803,VALID,0,VALID,22.9342,VALID,60,VALID,0,
2010-09-14, 02:18:04,VALID,1008.58,VALID,0,VALID,102.788,VALID,0,VALID,22.9129,VALID,60,VALID,0,
2010-09-14, 02:19:04,VALID,1008.56,VALID,0,VALID,102.795,VALID,0,VALID,22.9129,VALID,60,VALID,0,
2010-09-14, 02:20:04,VALID,1008.57,VALID,0,VALID,102.826,VALID,0,VALID,22.9129,VALID,60,VALID,0,
2010-09-14, 02:21:04,VALID,1008.55,VALID,0,VALID,102.871,VALID,0.105969,VALID,22.8952,VALID,60,VALID,0,
2010-09-14, 02:22:04,VALID,1008.53,VALID,0,VALID,102.902,VALID,0.105969,VALID,22.874,VALID,60,VALID,0,
2010-09-14, 02:23:04,VALID,1008.51,VALID,0,VALID,102.948,VALID,0.105969,VALID,22.874,VALID,60,VALID,0,
2010-09-14, 02:24:04,VALID,1008.48,VALID,0,VALID,102.993,VALID,0.105969,VALID,22.8757,VALID,60,VALID,0,
2010-09-14, 02:25:04,VALID,1008.44,VALID,0,VALID,103.047,VALID,0.105969,VALID,22.8545,VALID,60,VALID,0,
2010-09-14, 02:26:04,VALID,1008.43,VALID,0,VALID,103.062,VALID,0.105969,VALID,22.8562,VALID,60,VALID,0,
2010-09-14, 02:27:04,VALID,1008.43,VALID,0,VALID,103.1,VALID,0.105969,VALID,22.835,VALID,60,VALID,0,
2010-09-14, 02:28:04,VALID,1008.44,VALID,0,VALID,103.146,VALID,0.105969,VALID,22.8545,VALID,60,VALID,0,
2010-09-14, 02:29:04,VALID,1008.45,VALID,0,VALID,103.176,VALID,0.105969,VALID,22.874,VALID,60,VALID,0,
2010-09-14, 02:30:04,VALID,1008.47,VALID,0,VALID,103.184,VALID,0.105969,VALID,22.8935,VALID,60,VALID,0,
2010-09-14, 02:31:04,VALID,1008.47,VALID,0,VALID,103.192,VALID,0,VALID,22.9147,VALID,60,VALID,0,
2010-09-14, 02:32:04,VALID,1008.49,VALID,0,VALID,103.184,VALID,0.105969,VALID,22.9324,VALID,94,VALID,0,
2010-09-14, 02:33:04,VALID,1008.49,VALID,0,VALID,103.199,VALID,0.105969,VALID,22.9519,VALID,90,VALID,0.434375,
2010-09-14, 02:34:04,VALID,1008.5,VALID,0,VALID,103.176,VALID,0.105969,VALID,22.9714,VALID,80,VALID,0.602734,
2010-09-14, 02:35:04,VALID,1008.52,VALID,0,VALID,103.138,VALID,0.105969,VALID,22.9714,VALID,87,VALID,0.680078,
2010-09-14, 02:36:04,VALID,1008.52,VALID,0,VALID,103.07,VALID,0,VALID,22.9714,VALID,69,VALID,0.847656,
2010-09-14, 02:37:04,VALID,1008.51,VALID,0,VALID,103.009,VALID,0.105969,VALID,22.9926,VALID,79,VALID,0.801953,
2010-09-14, 02:38:04,VALID,1008.5,VALID,0,VALID,102.94,VALID,0,VALID,22.9519,VALID,88,VALID,1.10742,
2010-09-14, 02:39:04,VALID,1008.49,VALID,0,VALID,102.894,VALID,0.105969,VALID,22.9714,VALID,80,VALID,1.1668,
2010-09-14, 02:40:04,VALID,1008.48,VALID,0,VALID,102.803,VALID,0,VALID,22.9714,VALID,95,VALID,1.3207,
2010-09-14, 02:41:04,VALID,1008.45,VALID,0,VALID,102.688,VALID,0,VALID,22.9714,VALID,81,VALID,0.742578,
2010-09-14, 02:42:04,VALID,1008.46,VALID,0,VALID,102.627,VALID,0,VALID,22.9909,VALID,93,VALID,0.957422,
2010-09-14, 02:43:04,VALID,1008.45,VALID,0,VALID,102.551,VALID,0.105969,VALID,22.9909,VALID,68,VALID,0.844141,
2010-09-14, 02:44:04,VALID,1008.45,VALID,0,VALID,102.467,VALID,0,VALID,23.0121,VALID,74,VALID,0.776563,
2010-09-14, 02:45:04,VALID,1008.46,VALID,0,VALID,102.414,VALID,0.105969,VALID,23.0103,VALID,80,VALID,1.04258,
2010-09-14, 02:46:04,VALID,1008.45,VALID,0,VALID,102.322,VALID,0,VALID,22.9909,VALID,85,VALID,0.649609,
2010-09-14, 02:47:04,VALID,1008.44,VALID,0,VALID,102.246,VALID,0.105969,VALID,23.0103,VALID,74,VALID,0.85625,
2010-09-14, 02:48:04,VALID,1008.42,VALID,0,VALID,102.208,VALID,0.105969,VALID,23.0103,VALID,66,VALID,0.164844,
2010-09-14, 02:49:04,VALID,1008.42,VALID,0,VALID,102.238,VALID,0.105969,VALID,23.0298,VALID,66,VALID,0.160938,
2010-09-14, 02:50:04,VALID,1008.41,VALID,0,VALID,102.216,VALID,0.105969,VALID,23.0103,VALID,66,VALID,0.469531,
2010-09-14, 02:51:04,VALID,1008.43,VALID,0,VALID,102.216,VALID,0.105969,VALID,22.9909,VALID,66,VALID,0.103125,
2010-09-14, 02:52:04,VALID,1008.4,VALID,0,VALID,102.246,VALID,0.105969,VALID,22.9714,VALID,66,VALID,0.258984,
2010-09-14, 02:53:04,VALID,1008.4,VALID,0,VALID,102.254,VALID,0.105969,VALID,22.9519,VALID,66,VALID,0.245703,
2010-09-14, 02:54:04,VALID,1008.41,VALID,0,VALID,102.284,VALID,0,VALID,22.9519,VALID,66,VALID,0.0351563,
2010-09-14, 02:55:04,VALID,1008.39,VALID,0,VALID,102.322,VALID,0,VALID,22.9519,VALID,66,VALID,0,
2010-09-14, 02:56:04,VALID,1008.34,VALID,0,VALID,102.353,VALID,0.105969,VALID,22.9324,VALID,66,VALID,0,
2010-09-14, 02:57:04,VALID,1008.36,VALID,0,VALID,102.391,VALID,0,VALID,22.9536,VALID,69,VALID,0.558594,
2010-09-14, 02:58:04,VALID,1008.35,VALID,0,VALID,102.399,VALID,0.105969,VALID,22.9324,VALID,71,VALID,0.542188,
2010-09-14, 02:59:04,VALID,1008.34,VALID,0,VALID,102.414,VALID,0.105969,VALID,22.9324,VALID,70,VALID,0.549219,
2010-09-14, 03:00:04,VALID,1008.35,VALID,0,VALID,102.421,VALID,0.105969,VALID,22.9324,VALID,70,VALID,0.224609,
2010-09-14, 03:01:04,VALID,1008.33,VALID,0,VALID,102.421,VALID,0.105969,VALID,22.9324,VALID,70,VALID,0.308203,
2010-09-14, 03:02:04,VALID,1008.35,VALID,0,VALID,102.421,VALID,0,VALID,22.9536,VALID,89,VALID,0.216406,
2010-09-14, 03:03:04,VALID,1008.34,VALID,0,VALID,102.421,VALID,0,VALID,22.9129,VALID,89,VALID,0.00234375,
2010-09-14, 03:04:04,VALID,1008.34,VALID,0,VALID,102.414,VALID,0.105969,VALID,22.8935,VALID,89,VALID,0.106641,
2010-09-14, 03:05:04,VALID,1008.32,VALID,0,VALID,102.406,VALID,0.105969,VALID,22.8952,VALID,89,VALID,0.0175781,
2010-09-14, 03:06:04,VALID,1008.3,VALID,0,VALID,102.437,VALID,0,VALID,22.8562,VALID,89,VALID,0.000390625,
2010-09-14, 03:07:04,VALID,1008.32,VALID,0,VALID,102.498,VALID,0,VALID,22.8562,VALID,76,VALID,0.725781,
2010-09-14, 03:08:04,VALID,1008.35,VALID,0,VALID,102.498,VALID,0,VALID,22.8562,VALID,76,VALID,0.298828,
2010-09-14, 03:09:04,VALID,1008.34,VALID,0,VALID,102.475,VALID,0,VALID,22.8775,VALID,82,VALID,0.466797,
2010-09-14, 03:10:04,VALID,1008.37,VALID,0,VALID,102.467,VALID,0,VALID,22.8368,VALID,80,VALID,0.917188,
2010-09-14, 03:11:04,VALID,1008.34,VALID,0,VALID,102.414,VALID,0,VALID,22.8385,VALID,80,VALID,0.658594,
2010-09-14, 03:12:04,VALID,1008.34,VALID,0,VALID,102.399,VALID,0,VALID,22.8368,VALID,88,VALID,0.739453,
2010-09-14, 03:13:04,VALID,1008.34,VALID,0,VALID,102.421,VALID,0,VALID,22.7978,VALID,88,VALID,0.144531,
2010-09-14, 03:14:04,VALID,1008.33,VALID,0,VALID,102.452,VALID,0,VALID,22.8173,VALID,88,VALID,0.237891,
2010-09-14, 03:15:04,VALID,1008.33,VALID,0,VALID,102.49,VALID,0,VALID,22.819,VALID,88,VALID,0.0914062,
2010-09-14, 03:16:04,VALID,1008.32,VALID,0,VALID,102.536,VALID,0,VALID,22.7978,VALID,124,VALID,0.821875,
2010-09-14, 03:17:04,VALID,1008.32,VALID,0,VALID,102.582,VALID,0,VALID,22.819,VALID,125,VALID,0.427344,
2010-09-14, 03:18:04,VALID,1008.32,VALID,0,VALID,102.574,VALID,0,VALID,22.7978,VALID,125,VALID,0.429297,
2010-09-14, 03:19:04,VALID,1008.33,VALID,0,VALID,102.559,VALID,0,VALID,22.7783,VALID,131,VALID,0.464063,
2010-09-14, 03:20:04,VALID,1008.32,VALID,0,VALID,102.536,VALID,0,VALID,22.7394,VALID,137,VALID,0.753516,
2010-09-14, 03:21:04,VALID,1008.3,VALID,0,VALID,102.589,VALID,0,VALID,22.7411,VALID,135,VALID,1.15391,
2010-09-14, 03:22:04,VALID,1008.28,VALID,0,VALID,102.666,VALID,0,VALID,22.7199,VALID,118,VALID,0.609375,
2010-09-14, 03:23:04,VALID,1008.28,VALID,0,VALID,102.749,VALID,0,VALID,22.7004,VALID,127,VALID,1.04414,
2010-09-14, 03:24:04,VALID,1008.3,VALID,0,VALID,102.81,VALID,0,VALID,22.7004,VALID,116,VALID,1.06484,
2010-09-14, 03:25:04,VALID,1008.26,VALID,0,VALID,102.887,VALID,0,VALID,22.7216,VALID,124,VALID,0.916797,
2010-09-14, 03:26:04,VALID,1008.28,VALID,0,VALID,102.91,VALID,0,VALID,22.7004,VALID,115,VALID,0.908203,
2010-09-14, 03:27:04,VALID,1008.3,VALID,0,VALID,102.917,VALID,0,VALID,22.7199,VALID,123,VALID,0.557813,
2010-09-14, 03:28:04,VALID,1008.29,VALID,0,VALID,102.894,VALID,0,VALID,22.7216,VALID,139,VALID,0.648438,
2010-09-14, 03:29:04,VALID,1008.3,VALID,0,VALID,102.91,VALID,0,VALID,22.7216,VALID,143,VALID,1.4457,
2010-09-14, 03:30:04,VALID,1008.29,VALID,0,VALID,102.932,VALID,0,VALID,22.7216,VALID,142,VALID,0.802734,
2010-09-14, 03:31:04,VALID,1008.29,VALID,0,VALID,102.948,VALID,0,VALID,22.6809,VALID,149,VALID,0.591016,
2010-09-14, 03:32:04,VALID,1008.29,VALID,0,VALID,102.925,VALID,0,VALID,22.6809,VALID,149,VALID,0.485156,
2010-09-14, 03:33:04,VALID,1008.32,VALID,0,VALID,102.963,VALID,0,VALID,22.6826,VALID,149,VALID,0.187891,
2010-09-14, 03:34:04,VALID,1008.3,VALID,0,VALID,102.978,VALID,0,VALID,22.6809,VALID,144,VALID,0.230469,
2010-09-14, 03:35:04,VALID,1008.32,VALID,0,VALID,103.001,VALID,0,VALID,22.6809,VALID,140,VALID,0,
2010-09-14, 03:36:04,VALID,1008.32,VALID,0,VALID,102.986,VALID,0,VALID,22.7021,VALID,140,VALID,0.103125,
2010-09-14, 03:37:04,VALID,1008.27,VALID,0,VALID,103.009,VALID,0,VALID,22.6809,VALID,140,VALID,0.382813,
2010-09-14, 03:38:04,VALID,1008.26,VALID,0,VALID,103.039,VALID,0,VALID,22.7004,VALID,121,VALID,0.530078,
2010-09-14, 03:39:04,VALID,1008.26,VALID,0,VALID,103.054,VALID,0,VALID,22.7004,VALID,119,VALID,0.0746094,
2010-09-14, 03:40:04,VALID,1008.28,VALID,0,VALID,103.032,VALID,0,VALID,22.6826,VALID,119,VALID,0,
2010-09-14, 03:41:04,VALID,1008.27,VALID,0,VALID,102.986,VALID,0,VALID,22.6826,VALID,119,VALID,0,
2010-09-14, 03:42:04,VALID,1008.28,VALID,0,VALID,102.978,VALID,0.105969,VALID,22.6597,VALID,119,VALID,0,
2010-09-14, 03:43:04,VALID,1008.29,VALID,0,VALID,103.009,VALID,0,VALID,22.6597,VALID,119,VALID,0,
2010-09-14, 03:44:04,VALID,1008.31,VALID,0,VALID,103.024,VALID,0,VALID,22.6614,VALID,119,VALID,0,
2010-09-14, 03:45:04,VALID,1008.3,VALID,0,VALID,103.07,VALID,0,VALID,22.6614,VALID,119,VALID,0,
2010-09-14, 03:46:04,VALID,1008.29,VALID,0,VALID,103.093,VALID,0.105969,VALID,22.6597,VALID,119,VALID,0,